Date String (YYYY-MM-DD hh:mm:ss) UTC,Instrument flags,absolute air pressure of the measurement (hPa),sample flow rate (lpm),inlet stack bypass flow (lpm),air temperature of the measurement (°C),ambient temperature measured by the external sensor (°C),aerosol sample conditioner tube jacket temperature (°C),OPC LED temperature (°C),internal box temperature (°C),relative humidity of the measurement (%),span deviation,mass concentration of particles derived from Lorenz-Mie calculation of OPC scattering (μg/m³),mass concentration of particles derived from Lorenz-Mie calculation of OPC scattering (μg/m³),mass concentration of particles derived from Lorenz-Mie calculation of OPC scattering (μg/m³)
DateTimeUTC,F1_M11,P_M11,Q1_M11,Q2_M11,T1_M11,T2_M11,T3_M11,T4_M11,T5_M11,U1_M11,ZSPAN_M11,X2_M11,X0_M11,X1_M11
2023-08-23 21:00:00,SystemResetWarning,0834.0,5.00,000.00,027.5,025.5,000.0,035.7,029.2,27.2,0001.5,0009.17,0017.64,0008.16
2023-08-23 21:01:00,SystemResetWarning,0834.0,5.00,000.00,027.5,025.9,000.0,035.7,029.4,26.8,0001.5,0009.19,0017.17,0008.15
2023-08-23 21:02:00,SystemResetWarning,0834.0,4.99,000.00,027.6,025.4,000.0,035.7,029.3,26.5,0001.6,0009.21,0016.57,0008.13
2023-08-23 21:03:00,SystemResetWarning,0834.0,5.00,000.00,027.5,024.2,000.0,035.6,028.9,26.4,0001.7,0009.23,0016.58,0008.11
2023-08-23 21:04:00,SystemResetWarning,0834.0,5.02,000.00,027.4,024.2,000.0,035.6,028.9,26.9,0001.7,0009.22,0016.61,0008.07
2023-08-23 21:05:00,SystemResetWarning,0834.0,4.99,000.00,027.4,024.6,000.0,035.6,029.0,26.8,0001.6,0009.23,0017.05,0008.06
2023-08-23 21:06:00,SystemResetWarning,0834.0,5.00,000.00,027.4,025.1,000.0,035.7,029.1,27.0,0001.5,0009.24,0016.96,0008.03
2023-08-23 21:07:00,SystemResetWarning,0834.0,5.01,000.00,027.5,025.6,000.0,035.7,029.3,27.6,0001.5,0009.26,0016.70,0008.00
2023-08-23 21:08:00,SystemResetWarning,0834.0,5.00,000.00,027.5,025.6,000.0,035.7,029.3,27.4,0001.8,0009.27,0016.27,0007.98
2023-08-23 21:09:00,SystemResetWarning,0833.9,4.98,000.00,027.5,024.5,000.0,035.6,029.0,27.4,0001.9,0009.26,0016.09,0007.95
2023-08-23 21:10:00,SystemResetWarning,0833.9,5.02,000.00,027.4,024.0,000.0,035.6,028.9,27.4,0001.5,0009.21,0015.44,0007.91
2023-08-23 21:11:00,SystemResetWarning,0833.9,5.00,000.00,027.4,024.4,000.0,035.6,028.9,27.4,0001.4,0009.20,0015.55,0007.89
2023-08-23 21:12:00,SystemResetWarning,0833.9,5.00,000.00,027.4,024.8,000.0,035.6,029.0,27.2,0001.5,0009.22,0016.34,0007.90
2023-08-23 21:13:00,SystemResetWarning,0833.9,5.00,000.00,027.4,025.3,000.0,035.7,029.2,27.2,0001.4,0009.23,0017.47,0007.91
2023-08-23 21:14:00,SystemResetWarning,0833.9,5.00,000.00,027.5,025.7,000.0,035.7,029.3,27.2,0001.5,0009.28,0017.87,0007.91
2023-08-23 21:15:00,SystemResetWarning,0833.9,4.98,000.00,027.5,024.9,000.0,035.6,029.1,27.3,0001.6,0009.29,0018.26,0007.93
2023-08-23 21:16:00,SystemResetWarning,0833.8,5.01,000.00,027.4,024.1,000.0,035.6,028.9,27.3,0001.5,0009.26,0019.31,0007.93
2023-08-23 21:17:00,SystemResetWarning,0833.8,5.02,000.00,027.4,024.2,000.0,035.6,028.9,27.0,0001.5,0009.30,0019.77,0007.94
2023-08-23 21:18:00,SystemResetWarning,0833.8,5.00,000.00,027.3,024.6,000.0,035.6,028.9,27.3,0001.4,0009.27,0019.63,0007.96
2023-08-23 21:19:00,SystemResetWarning,0833.8,5.00,000.00,027.4,025.1,000.0,035.6,029.1,27.2,0000.9,0009.19,0019.33,0007.94
2023-08-23 21:20:00,SystemResetWarning,0833.7,5.00,000.00,027.4,025.6,000.0,035.7,029.2,27.2,0000.7,0009.22,0019.29,0007.95
2023-08-23 21:21:00,SystemResetWarning,0833.8,4.99,000.00,027.5,025.4,000.0,035.7,029.2,27.4,0000.8,0009.27,0019.83,0007.95
2023-08-23 21:22:00,SystemResetWarning,0833.8,5.00,000.00,027.4,024.2,000.0,035.6,028.9,27.4,0001.0,0009.22,0019.74,0007.92
2023-08-23 21:23:00,SystemResetWarning,0833.8,5.01,000.00,027.4,024.0,000.0,035.5,028.8,27.3,0000.8,0009.20,0019.41,0007.87
2023-08-23 21:24:00,SystemResetWarning,0833.8,5.00,000.00,027.3,024.4,000.0,035.6,028.9,27.7,0000.7,0009.16,0018.38,0007.84
2023-08-23 21:25:00,SystemResetWarning,0833.8,5.00,000.00,027.3,024.8,000.0,035.6,029.0,27.6,0000.9,0009.08,0018.08,0007.81
2023-08-23 21:26:00,SystemResetWarning,0833.8,5.00,000.00,027.4,025.4,000.0,035.6,029.2,28.2,0000.7,0009.05,0018.13,0007.77
2023-08-23 21:27:00,SystemResetWarning,0833.7,5.00,000.00,027.4,025.7,000.0,035.7,029.2,27.5,0000.6,0009.04,0016.71,0007.75
2023-08-23 21:28:00,SystemResetWarning,0833.7,4.98,000.00,027.4,024.7,000.0,035.6,029.1,27.4,0000.6,0009.03,0016.20,0007.73
2023-08-23 21:29:00,SystemResetWarning,0833.7,5.02,000.00,027.4,024.0,000.0,035.5,028.9,27.6,0000.8,0008.98,0016.27,0007.69
2023-08-23 21:30:00,SystemResetWarning,0833.7,5.01,000.00,027.3,024.3,000.0,035.5,028.9,28.8,0000.9,0008.99,0017.29,0007.66
2023-08-23 21:31:00,SystemResetWarning,0833.7,5.00,000.00,027.3,024.7,000.0,035.6,029.0,28.3,0000.9,0008.98,0016.96,0007.63
2023-08-23 21:32:00,SystemResetWarning,0833.7,5.00,000.00,027.4,025.3,000.0,035.6,029.1,27.3,0001.0,0008.90,0017.13,0007.58
2023-08-23 21:33:00,SystemResetWarning,0833.7,5.01,000.00,027.4,025.8,000.0,035.6,029.3,26.3,0001.1,0008.88,0017.65,0007.56
2023-08-23 21:34:00,SystemResetWarning,0833.6,4.99,000.00,027.5,025.2,000.0,035.6,029.1,26.5,0001.2,0008.83,0018.19,0007.53
2023-08-23 21:35:00,SystemResetWarning,0833.7,5.00,000.00,027.4,024.0,000.0,035.5,028.9,26.5,0001.5,0008.78,0017.70,0007.51
2023-08-23 21:36:00,SystemResetWarning,0833.6,5.01,000.00,027.3,024.1,000.0,035.5,028.8,26.8,0001.4,0008.79,0017.81,0007.49
2023-08-23 21:37:00,SystemResetWarning,0833.6,4.99,000.00,027.3,024.5,000.0,035.5,028.9,26.7,0001.5,0008.78,0017.62,0007.48
2023-08-23 21:38:00,SystemResetWarning,0833.6,5.00,000.00,027.3,025.0,000.0,035.6,029.0,26.6,0001.8,0008.76,0017.90,0007.47
2023-08-23 21:39:00,SystemResetWarning,0833.6,5.00,000.00,027.4,025.5,000.0,035.6,029.2,26.5,0002.0,0008.74,0017.90,0007.43
2023-08-23 21:40:00,SystemResetWarning,0833.6,5.00,000.00,027.4,025.9,000.0,035.6,029.3,26.6,0002.0,0008.74,0017.94,0007.41
2023-08-23 21:41:00,SystemResetWarning,0833.5,4.98,000.00,027.5,025.3,000.0,035.6,029.2,26.9,0002.1,0008.72,0017.17,0007.39
2023-08-23 21:42:00,SystemResetWarning,0833.5,5.01,000.00,027.4,024.2,000.0,035.5,029.0,27.2,0002.4,0008.64,0016.80,0007.37
2023-08-23 21:43:00,SystemResetWarning,0833.4,5.01,000.00,027.4,024.3,000.0,035.5,028.9,27.1,0002.5,0008.59,0016.24,0007.36
2023-08-23 21:44:00,SystemResetWarning,0833.6,4.99,000.00,027.3,024.7,000.0,035.5,029.0,27.2,0002.4,0008.57,0015.50,0007.35
2023-08-23 21:45:00,SystemResetWarning,0833.5,5.01,000.00,027.4,025.1,000.0,035.6,029.1,26.9,0002.4,0008.53,0015.22,0007.31
2023-08-23 21:46:00,SystemResetWarning,0833.5,5.00,000.00,027.4,025.6,000.0,035.6,029.3,26.9,0002.4,0008.51,0015.76,0007.29
2023-08-23 21:47:00,SystemResetWarning,0833.4,4.99,000.00,027.5,025.6,000.0,035.6,029.2,26.7,0002.5,0008.46,0015.57,0007.28
2023-08-23 21:48:00,SystemResetWarning,0833.4,4.99,000.00,027.4,024.5,000.0,035.5,028.9,27.0,0002.2,0008.46,0015.72,0007.26
2023-08-23 21:49:00,SystemResetWarning,0833.4,5.01,000.00,027.3,024.1,000.0,035.5,028.8,27.6,0002.0,0008.46,0016.26,0007.26
2023-08-23 21:50:00,SystemResetWarning,0833.4,5.00,000.00,027.3,024.5,000.0,035.5,028.8,27.6,0001.7,0008.44,0016.22,0007.25
2023-08-23 21:51:00,SystemResetWarning,0833.4,5.00,000.00,027.3,024.9,000.0,035.5,029.0,26.4,0001.6,0008.40,0016.11,0007.24
2023-08-23 21:52:00,SystemResetWarning,0833.4,5.00,000.00,027.3,025.4,000.0,035.6,029.1,25.8,0001.5,0008.38,0015.98,0007.23
2023-08-23 21:53:00,SystemResetWarning,0833.5,5.00,000.00,027.4,025.7,000.0,035.6,029.2,25.6,0001.2,0008.38,0016.05,0007.24
2023-08-23 21:54:00,SystemResetWarning,0833.4,4.98,000.00,027.4,024.8,000.0,035.5,029.0,25.6,0001.2,0008.39,0016.26,0007.24
2023-08-23 21:55:00,SystemResetWarning,0833.4,5.01,000.00,027.3,023.9,000.0,035.4,028.8,25.9,0001.5,0008.39,0016.30,0007.25
2023-08-23 21:56:00,SystemResetWarning,0833.4,5.02,000.00,027.3,024.1,000.0,035.4,028.8,26.4,0001.8,0008.45,0016.02,0007.27
2023-08-23 21:57:00,SystemResetWarning,0833.4,5.00,000.00,027.2,024.5,000.0,035.5,028.8,26.7,0001.3,0008.48,0015.54,0007.26
2023-08-23 21:58:00,SystemResetWarning,0833.4,5.00,000.00,027.3,025.0,000.0,035.5,029.0,26.8,0001.3,0008.50,0017.02,0007.26
2023-08-23 21:59:00,SystemResetWarning,0833.4,5.00,000.00,027.3,025.4,000.0,035.6,029.1,26.7,0001.5,0008.52,0017.02,0007.25
